Location: Dresden
(51.0300°N, 13.7800°E)
Time: 17:32:54
(UTC+01:00)

PCSat - Visible Passes

Search period start: 18 January 2026 00:00
Search period end: 28 January 2026 00:00
Orbit: 780 x 791 km, 67.1° (Epoch: 17 January)

Date Brightness Start Highest point End Pass type
(mag) Time Alt. Az. Time Alt. Az. Time Alt. Az.
18 Jan 10.9 17:54:27 10° NNW 17:58:35 21° NNE 18:00:36 18° NE visible
18 Jan 10.3 19:37:32 10° NNW 19:41:15 42° NNW 19:41:15 42° NNW visible
18 Jan 12.4 21:21:22 10° NW 21:21:53 12° WNW 21:21:53 12° WNW visible
19 Jan 11.1 17:22:07 10° NNW 17:25:57 19° NNE 17:29:34 11° ENE visible
19 Jan 9.8 19:05:15 10° NNW 19:10:12 49° NNE 19:10:12 49° NNE visible
19 Jan 11.8 20:48:48 10° NW 20:50:51 21° WNW 20:50:51 21° WNW visible
20 Jan 10.0 18:32:58 10° NNW 18:38:05 40° NE 18:39:16 35° ENE visible
20 Jan 10.9 20:16:19 10° NW 20:19:55 37° WNW 20:19:55 37° WNW visible
21 Jan 10.3 18:00:42 10° NNW 18:05:35 33° NE 18:08:27 20° E visible
21 Jan 9.8 19:43:55 10° NW 19:49:07 65° WSW 19:49:07 65° WSW visible
21 Jan 12.5 21:29:39 10° W 21:29:47 10° W 21:29:47 10° W visible
22 Jan 10.6 17:28:26 10° NNW 17:33:04 28° NNE 17:37:40 10° E visible
22 Jan 9.5 19:11:33 10° NW 19:17:00 85° SW 19:18:29 50° SSE visible
22 Jan 12.0 20:56:12 10° WNW 20:59:10 17° W 20:59:10 17° W visible
23 Jan 9.4 18:39:14 10° NW 18:44:40 75° NE 18:48:05 23° SE visible
23 Jan 11.6 20:23:19 10° WNW 20:27:25 22° WSW 20:28:47 20° SW visible
24 Jan 9.6 18:06:55 10° NNW 18:12:18 59° NE 18:17:37 10° SE visible
24 Jan 11.2 19:50:39 10° NW 19:55:19 30° WSW 19:58:45 16° SSW visible
25 Jan 9.9 17:34:38 10° NNW 17:39:53 46° NE 17:45:04 10° ESE visible
25 Jan 10.8 19:18:07 10° NW 19:23:09 40° WSW 19:28:08 10° S visible
26 Jan 10.3 18:45:39 10° NW 18:50:56 54° WSW 18:56:10 10° SSE visible
27 Jan 9.9 18:13:15 10° NW 18:18:40 71° WSW 18:24:02 10° SSE visible
27 Jan 12.5 19:58:33 10° WNW 20:01:01 13° WSW 20:03:28 10° SW visible
